Location: ??
(35.5052°N, 139.7262°E)
Time: 18:22:04
(UTC+00:00)

Cosmos 1125 Rocket - Pass Details

Date: 20 June 2021
Orbit: 757 x 780 km, 74.0° (Epoch: 30 July)

Event Time Altitude Azimuth Distance (km) Brightness Sun altitude
Rises 17:51:24 0° 335° (NNW) 3,244 7.0 -16.1°
Reaches altitude 10° 17:53:51 10° 330° (NNW) 2,317 6.2 -15.7°
Maximum altitude 17:58:51 47° 258° (WSW) 1,025 3.8 -15.0°
Enters shadow 18:03:14 14° 188° (S) 2,081 5.3 -14.4°
